Home > Time Zones > World Clock > Weather > U.S.A. > Adak > Past weeks

Flag for U.S.A. Weather past 2 weeks in Adak, Alaska, U.S.A.

36 °F

Partly cloudy.

Feels Like: 36 °F
Forecast: 35 / 40 °F
Wind: No wind

Location: Adak

Current Time: Nov 28, 2015 at 11:39:56 PM

Latest Report: Nov 28, 2015 at 11:16 PM

Visibility: 7 mi

Pressure: 28.86 "Hg

Humidity: 75%

Dew point: 28 °F

Location of AdakLocation

Historic Weather in Adak — Graph


Adak temperature yesterday

Maximum temperature yesterday: 37 °F (at 12:16 AM)
Minimum temperature yesterday: 30 °F (at 10:16 PM)
Average temperature yesterday: 35 °F

Past Weeks' High & Low Weather Summary

High48 °F (Nov 18, 1:16 PM)81% (Nov 19, 10:36 PM)30.37 "Hg (Nov 19, 10:36 PM)
Low25 °F (Nov 24, 10:36 PM)38% (Nov 15, 5:16 AM)28.63 "Hg (Nov 25, 9:56 PM)
Average37 °F65%29.74 "Hg
* Reported Nov 13 10:16 PM — Nov 28 10:16 PM, Adak, Weather by CustomWeather, © 2015

Note: Actual official high and low records may vary slightly from our data, if they occured in-between our weather recording intervals... More about our weather records


Adak weather history for previous 24 hours

Time TempWeatherWind HumidityBarometerVisibility
10:16 PM
Sat, Nov 28
34 °FPassing clouds.No wind75%28.88 "Hg10 mi
9:56 PM36 °FMostly cloudy.No wind75%28.88 "Hg10 mi
8:36 PM36 °FMostly cloudy.No wind75%28.91 "Hg10 mi
7:16 PM37 °FMostly cloudy.No wind75%28.93 "Hg9 mi
6:56 PM37 °FOvercast.3 mph75%28.94 "Hg5 mi
6:36 PM37 °FOvercast.No wind75%28.95 "Hg3 mi
5:56 PM37 °FMostly cloudy.No wind75%28.96 "Hg5 mi
5:16 PM37 °FPassing clouds.No wind75%28.97 "Hg7 mi
4:56 PM37 °FPassing clouds.7 mph75%28.97 "Hg5 mi
4:36 PM39 °FMore clouds than sun.9 mph70%28.98 "Hg6 mi
4:16 PM39 °FCloudy.7 mph75%28.99 "Hg10 mi
3:56 PM39 °FOvercast.8 mph75%28.99 "Hg10 mi
3:36 PM39 °FMostly cloudy.10 mph81%29.01 "Hg9 mi
3:16 PM39 °FMostly cloudy.12 mph75%29.03 "Hg6 mi
2:56 PM39 °FMostly cloudy.16 mph70%29.05 "Hg6 mi
2:36 PM39 °FMostly cloudy.21 mph70%29.06 "Hg3 mi
2:16 PM37 °FOvercast.18 mph75%29.07 "Hg7 mi
1:36 PM37 °FMostly cloudy.17 mph70%29.11 "Hg5 mi
1:16 PM37 °FOvercast.20 mph70%29.13 "Hg5 mi
12:56 PM37 °FOvercast.20 mph70%29.16 "Hg5 mi
12:16 PM36 °FMostly cloudy.18 mph75%29.20 "Hg5 mi
11:56 AM36 °FMostly cloudy.14 mph75%29.22 "Hg8 mi
11:36 AM36 °FOvercast.22 mph70%29.24 "Hg7 mi
10:36 AM36 °FMostly cloudy.24 mph70%29.30 "Hg7 mi
10:16 AM34 °FMostly cloudy.16 mph75%29.31 "Hg4 mi
9:56 AM34 °FBroken clouds.18 mph75%29.33 "Hg5 mi
9:36 AM34 °FMostly cloudy.16 mph75%29.35 "Hg4 mi
9:16 AM34 °FMostly cloudy.23 mph75%29.37 "Hg5 mi
8:56 AM34 °FMore clouds than sun.21 mph70%29.39 "Hg8 mi
8:36 AM34 °FMore clouds than sun.15 mph70%29.41 "Hg7 mi
8:16 AM34 °FOvercast.12 mph70%29.43 "Hg10 mi
7:56 AM34 °FMostly cloudy.10 mph70%29.45 "Hg5 mi
7:36 AM34 °FOvercast.13 mph70%29.47 "Hg10 mi
7:16 AM34 °FPartly cloudy.13 mph70%29.49 "Hg10 mi
6:56 AM32 °FMostly cloudy.10 mph75%29.51 "Hg4 mi
6:36 AM34 °FPartly cloudy.5 mph70%29.53 "Hg5 mi
6:16 AM32 °FMostly cloudy.No wind64%29.54 "Hg6 mi
5:56 AM34 °FMostly cloudy.7 mph60%29.55 "Hg10 mi
5:36 AM32 °FOvercast.No wind60%29.56 "Hg10 mi
5:16 AM30 °FPartly cloudy.No wind64%29.58 "Hg10 mi
4:56 AM30 °FMostly cloudy.No wind64%29.59 "Hg10 mi
4:36 AM28 °FOvercast.No wind69%29.61 "Hg10 mi
4:16 AM28 °FOvercast.No wind74%29.62 "Hg10 mi
3:56 AM28 °FMostly cloudy.No wind69%29.63 "Hg10 mi
3:36 AM28 °FOvercast.No wind69%29.65 "Hg10 mi
3:16 AM28 °FOvercast.No wind69%29.66 "Hg10 mi
2:56 AM28 °FOvercast.No wind69%29.67 "Hg10 mi
2:36 AM28 °FOvercast.No wind69%29.68 "Hg10 mi
2:16 AM28 °FPassing clouds.No wind69%29.69 "Hg10 mi
1:56 AM28 °FOvercast.No wind69%29.70 "Hg10 mi
1:36 AM28 °FOvercast.No wind69%29.71 "Hg10 mi
1:16 AM30 °FMostly cloudy.No wind64%29.70 "Hg10 mi
12:56 AM28 °FOvercast.No wind69%29.72 "Hg10 mi
12:36 AM30 °FOvercast.No wind64%29.72 "Hg10 mi
12:16 AM30 °FMostly cloudy.No wind64%29.74 "Hg10 mi
11:56 PM
Fri, Nov 27
32 °FOvercast.7 mph60%29.74 "Hg10 mi
11:36 PM30 °FOvercast.No wind64%29.75 "Hg10 mi
11:16 PM32 °FMostly cloudy.No wind55%29.76 "Hg10 mi
Weather by CustomWeather, © 2015

See weather overviewHow to use our weather pages